Weather History for Cahokia, IL

Change the Weather History Date:

Friday, January 31, 2014

  Actual Average Record
Temperature  
Mean Temperature 32 °F -  
Max Temperature 37 °F 46 °F 64 °F (2012)
Min Temperature 28 °F 33 °F -4 °F (1965)
Degree Days  
Heating Degree Days 32    
Moisture  
Dew Point 24 °F    
Average Humidity 76    
Maximum Humidity 100    
Minimum Humidity 39    
Precipitation  
Precipitation 0.00 in - - ()
Sea Level Pressure  
Sea Level Pressure 30.05 in    
Wind  
Wind Speed 7 mph (NE)    
Max Wind Speed 12 mph    
Max Gust Speed -    
Visibility 7 miles    
Events Rain    
Averages and records for this station are not official NWS values.
T = Trace of Precipitation, MM = Missing Value Source: NWS Daily Summary

Daily Weather History Graph

Daily Weather History Graph

Search for Another Location

Airport:

Trip Planner

Search our weather history database for the weather conditions in past years. The results will help you decide how hot, cold, wet, or windy it might be!

Date:

Astronomy

Jan. 31, 2014 Rise Set
Actual Time 7:07 AM CST 5:21 PM CST
Civil Twilight 6:39 AM CST 5:49 PM CST
Nautical Twilight 6:07 AM CST 6:21 PM CST
Astronomical Twilight 5:36 AM CST 6:52 PM CST
Moon 7:18 AM CST (1/31) 6:44 PM CST (1/31)
Length of Visible Light 11h 10m
Length of Day
10h 14m
New Moon, 1% of the Moon is Illuminated
Jan 31
New Moon
Feb 6
First Quarter
Feb 14
Full
Feb 22
Last Quarter
Mar 1
New

Hourly Weather History & Observations

Time (CST) Temp. Windchill Dew Point Humidity Pressure Visibility Wind Dir Wind Speed Gust Speed Precip Events Conditions
12:53 AM 37.9 °F 32.7 °F 15.1 °F 39% 29.98 in 10.0 mi SW 6.9 mph - N/A   Mostly Cloudy
1:53 AM 35.1 °F 30.1 °F 17.1 °F 48% 30.00 in 10.0 mi NW 5.8 mph - N/A   Overcast
2:53 AM 34.0 °F - 17.1 °F 50% 30.04 in 10.0 mi Calm Calm - N/A   Overcast
3:53 AM 34.0 °F 25.5 °F 24.1 °F 67% 30.02 in 10.0 mi North 11.5 mph - N/A   Scattered Clouds
4:53 AM 33.1 °F 25.5 °F 25.0 °F 72% 30.04 in 10.0 mi NNE 9.2 mph - N/A   Overcast
5:53 AM 30.9 °F 22.8 °F 21.9 °F 69% 30.06 in 10.0 mi North 9.2 mph - N/A   Overcast
6:53 AM 30.0 °F 25.2 °F 19.9 °F 66% 30.08 in 10.0 mi North 4.6 mph - N/A   Overcast
7:53 AM 30.0 °F 20.5 °F 19.9 °F 66% 30.11 in 10.0 mi North 11.5 mph - N/A   Overcast
8:53 AM 28.9 °F 20.4 °F 19.0 °F 67% 30.12 in 10.0 mi NNE 9.2 mph - N/A   Mostly Cloudy
9:53 AM 30.0 °F 21.7 °F 19.9 °F 66% 30.12 in 10.0 mi NNE 9.2 mph - N/A   Mostly Cloudy
10:53 AM 32.0 °F 24.2 °F 19.0 °F 59% 30.14 in 10.0 mi NE 9.2 mph - N/A   Mostly Cloudy
11:53 AM 33.1 °F 26.9 °F 19.0 °F 56% 30.11 in 10.0 mi NE 6.9 mph - N/A   Mostly Cloudy
12:53 PM 33.1 °F 26.1 °F 19.0 °F 56% 30.08 in 10.0 mi North 8.1 mph - N/A   Overcast
1:53 PM 32.0 °F 24.2 °F 19.0 °F 59% 30.06 in 10.0 mi NE 9.2 mph - N/A   Overcast
2:53 PM 32.0 °F 24.8 °F 19.9 °F 61% 30.06 in 10.0 mi NE 8.1 mph - N/A   Overcast
3:13 PM 32.0 °F 24.8 °F 21.2 °F 64% 30.05 in 9.0 mi NE 8.1 mph - N/A   Overcast
3:53 PM 30.0 °F 23.2 °F 25.0 °F 82% 30.06 in 4.0 mi NE 6.9 mph - N/A   Overcast
4:46 PM 30.2 °F 24.3 °F 26.6 °F 86% 30.03 in 2.5 mi ENE 5.8 mph - N/A   Overcast
4:53 PM 30.0 °F 23.2 °F 27.0 °F 88% 30.05 in 2.5 mi ENE 6.9 mph - N/A   Overcast
5:21 PM 30.2 °F 24.3 °F 26.6 °F 86% 30.04 in 2.5 mi NE 5.8 mph - N/A   Overcast
5:53 PM 30.0 °F 25.2 °F 28.0 °F 92% 30.06 in 3.0 mi NNE 4.6 mph - N/A   Overcast
6:20 PM 30.2 °F 23.4 °F 28.4 °F 93% 30.04 in 3.0 mi NE 6.9 mph - 0.00 in Rain Light Freezing Rain
6:53 PM 30.0 °F 25.2 °F 28.9 °F 96% 30.05 in 4.0 mi ENE 4.6 mph - 0.00 in   Overcast
7:53 PM 30.0 °F 24.1 °F 28.0 °F 92% 30.05 in 6.0 mi ENE 5.8 mph - N/A   Overcast
8:36 PM 30.2 °F 25.4 °F 28.4 °F 93% 30.02 in 7.0 mi ENE 4.6 mph - N/A   Overcast
8:53 PM 30.9 °F 25.2 °F 28.9 °F 92% 30.02 in 5.0 mi ENE 5.8 mph - N/A   Overcast
9:53 PM 30.9 °F - 28.9 °F 92% 30.02 in 6.0 mi Calm Calm - N/A   Overcast
10:42 PM 30.2 °F 25.4 °F 28.4 °F 93% 29.98 in 4.0 mi ENE 4.6 mph - N/A   Overcast
10:53 PM 30.9 °F 26.2 °F 30.0 °F 96% 30.00 in 2.5 mi NE 4.6 mph - N/A   Overcast
11:46 PM 30.2 °F 26.7 °F 30.2 °F 100% 29.97 in 1.8 mi ENE 3.5 mph - N/A   Overcast
11:53 PM 30.9 °F 27.5 °F 30.0 °F 96% 29.98 in 1.8 mi ENE 3.5 mph - N/A   Overcast